Total_Precipitation_Accumulation
0.22 0.16 0.17 0.19 0.17 0.18 0.28 0.28 0.17 0.07 0.06 0.07 0.06 0.06 0.06 0.07 0.06 0.04 0.03 0.02 0.01 0.01 0.01 0.00 0.00 0.01 0.02 0.01 0.01 0.03 0.07 0.08 0.06 0.07 0.07 0.08 0.10 0.13 0.12 0.10 0.06 0.05 0.05 0.05
0.17 0.12 0.12 0.13 0.11 0.12 0.13 0.11 0.09 0.06 0.05 0.06 0.07 0.07 0.07 0.08 0.08 0.06 0.06 0.03 0.02 0.01 0.01 0.01 0.00 0.01 0.02 0.01 0.01 0.02 0.06 0.07 0.05 0.06 0.07 0.07 0.08 0.08 0.09 0.11 0.10 0.07 0.05 0.05
0.24 0.13 0.22 0.23 0.13 0.11 0.10 0.08 0.09 0.10 0.07 0.06 0.07 0.07 0.09 0.11 0.09 0.07 0.07 0.05 0.03 0.02 0.01 0.01 0.01 0.01 0.01 0.01 0.01 0.02 0.05 0.07 0.04 0.04 0.06 0.06 0.08 0.08 0.08 0.08 0.09 0.09 0.07 0.05
0.39 0.30 0.47 0.20 0.07 0.07 0.08 0.09 0.10 0.09 0.08 0.07 0.07 0.08 0.09 0.12 0.11 0.08 0.07 0.06 0.04 0.02 0.01 0.01 0.01 0.02 0.02 0.02 0.02 0.03 0.05 0.06 0.04 0.04 0.06 0.07 0.08 0.09 0.08 0.07 0.07 0.07 0.07 0.06
0.59 0.46 0.27 0.11 0.10 0.10 0.13 0.15 0.10 0.08 0.08 0.06 0.06 0.06 0.07 0.06 0.08 0.08 0.07 0.05 0.04 0.04 0.03 0.02 0.01 0.03 0.03 0.03 0.03 0.04 0.05 0.04 0.03 0.03 0.05 0.07 0.08 0.09 0.09 0.08 0.07 0.06 0.06 0.05
0.63 0.49 0.23 0.14 0.11 0.09 0.11 0.23 0.12 0.09 0.10 0.09 0.07 0.09 0.07 0.05 0.06 0.06 0.05 0.05 0.05 0.05 0.04 0.03 0.03 0.03 0.03 0.03 0.04 0.04 0.04 0.03 0.02 0.03 0.03 0.05 0.06 0.08 0.10 0.10 0.08 0.07 0.05 0.05
0.51 0.38 0.15 0.13 0.13 0.12 0.21 0.27 0.13 0.10 0.11 0.10 0.10 0.10 0.09 0.08 0.07 0.06 0.04 0.05 0.06 0.06 0.05 0.03 0.03 0.02 0.03 0.04 0.04 0.03 0.03 0.03 0.03 0.03 0.03 0.04 0.06 0.09 0.09 0.10 0.10 0.09 0.06 0.05
0.37 0.37 0.18 0.15 0.19 0.26 0.27 0.15 0.10 0.08 0.08 0.08 0.07 0.06 0.07 0.08 0.08 0.06 0.05 0.05 0.04 0.05 0.05 0.04 0.03 0.03 0.03 0.04 0.05 0.04 0.04 0.04 0.04 0.04 0.04 0.05 0.07 0.09 0.09 0.10 0.11 0.11 0.09 0.08
0.27 0.19 0.13 0.14 0.20 0.21 0.15 0.09 0.06 0.06 0.06 0.06 0.06 0.06 0.07 0.08 0.08 0.08 0.08 0.07 0.06 0.05 0.05 0.04 0.04 0.04 0.04 0.05 0.05 0.05 0.06 0.06 0.05 0.05 0.06 0.07 0.07 0.08 0.10 0.11 0.13 0.12 0.11 0.09
0.18 0.09 0.09 0.11 0.13 0.14 0.09 0.06 0.05 0.04 0.04 0.05 0.05 0.06 0.07 0.08 0.08 0.08 0.10 0.09 0.07 0.06 0.06 0.06 0.05 0.05 0.05 0.05 0.05 0.06 0.06 0.07 0.07 0.07 0.09 0.09 0.08 0.08 0.10 0.14 0.20 0.16 0.13 0.12
0.15 0.08 0.08 0.08 0.08 0.08 0.06 0.05 0.04 0.04 0.03 0.03 0.04 0.05 0.06 0.08 0.08 0.08 0.11 0.11 0.08 0.07 0.07 0.07 0.06 0.06 0.06 0.06 0.06 0.06 0.07 0.08 0.10 0.09 0.10 0.11 0.11 0.09 0.10 0.12 0.22 0.23 0.18 0.19
0.10 0.06 0.07 0.07 0.06 0.05 0.05 0.04 0.04 0.04 0.03 0.02 0.03 0.04 0.05 0.06 0.07 0.08 0.10 0.11 0.09 0.08 0.07 0.07 0.07 0.07 0.07 0.06 0.06 0.06 0.07 0.08 0.11 0.12 0.12 0.12 0.12 0.12 0.13 0.12 0.14 0.15 0.15 0.18
0.04 0.04 0.05 0.05 0.04 0.04 0.03 0.03 0.03 0.04 0.04 0.03 0.03 0.03 0.05 0.05 0.06 0.06 0.08 0.09 0.09 0.08 0.07 0.07 0.06 0.07 0.07 0.07 0.06 0.06 0.05 0.07 0.09 0.12 0.13 0.12 0.11 0.12 0.13 0.13 0.12 0.12 0.13 0.14
0.03 0.04 0.04 0.03 0.03 0.03 0.03 0.03 0.03 0.04 0.04 0.04 0.04 0.03 0.04 0.05 0.05 0.05 0.07 0.08 0.09 0.07 0.06 0.06 0.06 0.07 0.08 0.07 0.07 0.07 0.05 0.07 0.09 0.11 0.14 0.13 0.12 0.12 0.14 0.15 0.14 0.11 0.11 0.12
0.03 0.04 0.05 0.03 0.03 0.03 0.02 0.03 0.04 0.04 0.05 0.05 0.04 0.03 0.03 0.04 0.04 0.05 0.06 0.08 0.08 0.07 0.06 0.06 0.07 0.08 0.09 0.08 0.08 0.08 0.07 0.07 0.08 0.11 0.14 0.15 0.14 0.14 0.15 0.16 0.14 0.12 0.11 0.12
0.04 0.05 0.06 0.05 0.04 0.03 0.03 0.03 0.03 0.04 0.04 0.04 0.04 0.03 0.03 0.04 0.04 0.06 0.07 0.08 0.08 0.07 0.06 0.06 0.07 0.09 0.11 0.10 0.09 0.09 0.09 0.10 0.10 0.11 0.14 0.16 0.17 0.19 0.20 0.20 0.19 0.17 0.16 0.16
0.08 0.08 0.08 0.07 0.06 0.04 0.04 0.03 0.02 0.03 0.03 0.04 0.04 0.03 0.03 0.03 0.04 0.05 0.06 0.07 0.07 0.06 0.06 0.06 0.07 0.09 0.12 0.12 0.10 0.10 0.10 0.10 0.13 0.14 0.15 0.17 0.20 0.23 0.24 0.26 0.26 0.22 0.17 0.18
0.10 0.09 0.07 0.07 0.06 0.05 0.04 0.03 0.02 0.03 0.03 0.03 0.03 0.03 0.03 0.04 0.05 0.06 0.06 0.07 0.08 0.08 0.08 0.07 0.07 0.08 0.12 0.13 0.11 0.10 0.11 0.10 0.12 0.15 0.18 0.20 0.24 0.26 0.29 0.30 0.28 0.26 0.23 0.20
0.07 0.07 0.06 0.06 0.06 0.05 0.05 0.05 0.03 0.03 0.03 0.02 0.03 0.03 0.03 0.04 0.05 0.05 0.06 0.07 0.07 0.08 0.09 0.08 0.09 0.09 0.11 0.14 0.13 0.10 0.12 0.14 0.16 0.17 0.20 0.26 0.28 0.27 0.28 0.30 0.30 0.29 0.28 0.26
0.06 0.06 0.05 0.05 0.05 0.05 0.06 0.06 0.04 0.03 0.03 0.03 0.03 0.03 0.03 0.04 0.05 0.05 0.06 0.06 0.07 0.08 0.08 0.08 0.09 0.09 0.11 0.14 0.15 0.12 0.15 0.20 0.22 0.22 0.23 0.27 0.29 0.30 0.29 0.31 0.32 0.31 0.29 0.28
0.06 0.06 0.06 0.05 0.06 0.06 0.07 0.07 0.06 0.04 0.03 0.03 0.04 0.04 0.04 0.05 0.06 0.06 0.06 0.06 0.07 0.09 0.09 0.09 0.09 0.10 0.11 0.16 0.19 0.17 0.20 0.23 0.25 0.25 0.28 0.30 0.33 0.33 0.32 0.31 0.32 0.32 0.30 0.29
0.06 0.07 0.07 0.05 0.06 0.08 0.08 0.08 0.07 0.06 0.05 0.05 0.05 0.06 0.07 0.07 0.06 0.07 0.07 0.07 0.07 0.10 0.10 0.09 0.09 0.12 0.16 0.20 0.19 0.19 0.21 0.23 0.25 0.28 0.32 0.35 0.39 0.41 0.37 0.34 0.35 0.34 0.32 0.30
0.07 0.07 0.08 0.08 0.08 0.09 0.08 0.08 0.08 0.08 0.07 0.07 0.08 0.08 0.08 0.09 0.08 0.08 0.09 0.09 0.09 0.11 0.11 0.10 0.11 0.16 0.21 0.21 0.19 0.19 0.21 0.25 0.29 0.33 0.37 0.40 0.42 0.43 0.42 0.39 0.37 0.35 0.35 0.33
0.08 0.07 0.08 0.09 0.11 0.12 0.10 0.09 0.09 0.11 0.11 0.11 0.10 0.09 0.10 0.11 0.11 0.10 0.10 0.13 0.13 0.14 0.13 0.14 0.16 0.18 0.22 0.22 0.22 0.23 0.27 0.32 0.35 0.41 0.46 0.47 0.46 0.45 0.43 0.40 0.37 0.33 0.32 0.32
0.10 0.10 0.10 0.11 0.12 0.14 0.15 0.13 0.12 0.12 0.13 0.14 0.13 0.11 0.11 0.12 0.14 0.14 0.14 0.15 0.15 0.16 0.16 0.19 0.21 0.21 0.22 0.26 0.29 0.32 0.37 0.41 0.47 0.56 0.58 0.54 0.50 0.47 0.41 0.37 0.35 0.34 0.33 0.31
0.14 0.14 0.14 0.14 0.16 0.16 0.16 0.15 0.14 0.13 0.13 0.14 0.15 0.15 0.16 0.16 0.17 0.17 0.18 0.19 0.19 0.20 0.20 0.21 0.22 0.24 0.28 0.34 0.39 0.42 0.46 0.50 0.55 0.55 0.51 0.49 0.47 0.45 0.40 0.36 0.33 0.33 0.31 0.28
0.19 0.18 0.18 0.19 0.20 0.19 0.19 0.19 0.20 0.19 0.17 0.18 0.19 0.19 0.20 0.20 0.22 0.22 0.22 0.23 0.24 0.24 0.24 0.25 0.26 0.30 0.36 0.42 0.47 0.50 0.53 0.54 0.55 0.54 0.51 0.49 0.47 0.43 0.38 0.36 0.34 0.32 0.29 0.25